Lid_Strength_Index
1 1 1 0 0 0 0 0 0 -0 -0 0 -0 0 1 1 0 -0 -1 -0 -0 -0 -0 2 2 1 2 2 0 1 2 2 4 3 0 0 0 0 0 -1 -1 -1 -1
2 1 1 0 0 0 0 0 0 0 0 0 0 1 1 1 1 1 1 0 0 0 0 -0 1 0 -0 1 0 1 1 1 2 3 2 1 1 0 0 0 -0 -1 -1
2 2 1 0 0 0 -0 -0 -0 0 -0 -0 0 1 1 1 1 1 0 0 0 0 0 0 0 -0 0 0 0 1 1 1 1 2 2 1 0 -0 0 -0 -0 -0 -1
2 2 2 2 1 0 -0 -0 -0 -0 -0 -1 -0 1 1 1 1 1 0 -0 -0 -0 -0 -0 -0 0 0 0 0 0 0 1 1 2 2 2 1 -0 0 1 1 0 1
2 3 2 2 1 -0 -0 -0 -0 -0 -1 -0 0 -0 0 1 1 1 0 -0 0 0 -0 -0 -1 0 1 1 0 0 0 1 1 2 2 2 2 2 2 1 1 1 0
1 2 2 2 3 2 1 2 2 2 1 1 0 0 0 1 4 5 3 -0 -0 0 0 -0 -0 -0 1 2 2 2 1 1 1 2 2 3 2 1 1 2 3 3 3
2 1 2 2 3 3 3 3 2 1 0 1 0 1 0 0 5 5 3 -1 -0 -0 0 0 0 1 1 1 1 1 1 3 3 0 2 1 1 1 1 2 2 3 3
1 2 3 3 3 2 3 3 2 3 2 1 1 1 0 0 5 5 4 -0 -0 0 0 -0 1 1 2 3 1 0 0 -0 0 2 2 0 0 0 1 1 1 1 2
4 4 3 3 3 3 2 1 1 1 2 1 1 1 1 0 5 5 3 0 0 0 0 0 1 1 4 5 3 2 3 2 1 3 4 5 5 6 5 2 2 3 4
3 3 2 2 2 1 1 1 1 0 1 1 1 0 2 0 4 5 3 1 1 1 0 0 2 3 5 5 2 2 3 2 1 0 1 1 1 0 3 0 0 2 2
2 2 2 2 1 1 1 0 0 0 0 1 1 1 0 1 1 4 5 1 2 2 1 1 1 5 6 7 6 1 2 2 2 1 1 1 0 -0 -0 -1 -1 0 2
2 2 2 1 2 2 1 0 0 0 2 2 1 1 1 1 3 4 5 5 4 2 1 1 1 5 6 6 4 5 5 4 0 1 1 1 1 0 -0 -0 -1 -1 -1
1 1 1 1 1 1 1 1 1 2 2 3 3 3 3 2 2 3 4 4 3 2 1 3 4 5 5 4 4 4 3 2 2 3 3 3 2 1 0 -0 -1 -1 -1
1 1 1 1 2 1 1 1 2 2 2 2 4 4 3 3 2 2 2 1 2 2 2 1 2 3 4 3 3 3 2 2 3 3 4 3 3 3 3 2 1 1 1
2 1 1 2 1 1 1 1 1 1 2 3 3 4 5 5 4 5 5 3 2 3 3 1 2 3 4 4 4 3 2 2 3 3 3 3 3 3 4 3 3 2 2
0 1 2 1 1 2 2 2 5 6 6 6 7 6 4 6 6 6 6 7 6 6 3 3 4 4 4 4 4 5 4 5 4 3 3 3 4 4 4 3 3 3 3
1 1 1 2 2 2 2 3 4 4 5 6 7 7 7 7 7 7 7 7 6 5 3 3 3 3 3 4 4 5 5 5 4 4 4 3 3 4 4 4 3 4 3
1 5 2 1 2 2 2 2 3 4 4 4 5 6 6 6 7 7 7 5 3 3 3 3 3 3 4 5 6 6 6 5 4 4 4 4 3 4 4 4 4 4 4
1 1 1 1 1 2 1 1 2 3 3 3 3 4 5 6 6 6 6 2 3 4 5 4 4 4 5 6 6 5 5 5 5 4 4 4 4 4 5 5 5 8 7
1 4 5 2 1 1 1 1 1 3 3 4 4 4 4 4 4 3 2 2 2 3 3 4 5 5 5 5 6 5 5 5 5 5 4 4 4 4 5 5 4 5 5
2 1 7 1 2 2 2 1 1 2 3 3 3 4 10 4 4 4 3 3 3 3 3 4 5 6 6 6 6 6 6 5 5 5 5 5 4 5 4 4 5 5 5
2 1 1 1 2 2 3 2 1 2 3 3 3 4 8 4 4 4 4 4 3 3 3 4 5 5 6 6 6 6 6 6 5 5 5 5 5 5 5 5 5 6 6
1 2 2 2 2 5 3 3 3 2 3 3 4 4 4 4 5 5 5 5 4 4 4 5 5 5 6 6 6 6 6 6 6 5 5 5 5 5 5 5 5 6 7
1 2 3 2 2 3 3 4 3 6 4 4 4 4 4 4 5 5 5 6 5 5 5 5 5 6 6 6 6 6 5 6 6 6 6 5 5 5 5 5 6 6 6
1 2 2 3 3 2 3 3 3 4 4 4 4 4 4 5 5 5 5 5 5 5 6 5 5 6 6 6 6 7 8 10 8 10 6 5 4 4 4 5 6 6 6
2 2 2 2 2 2 3 3 4 3 4 3 3 3 4 4 4 4 4 5 5 5 5 5 5 6 6 6 7 9 10 10 8 10 8 4 4 4 5 5 6 6 6